Погода в Нерюнгри

Хотите узнать прогноз погоды в Нерюнгри? Тогда Вам сюда: Погода в Нерюнгри

Поиск расширенной информации на нашем сайте:

Полезная информация:

Новости сайта



02.01.2020
Опубликован Долгосрочный прогноз погоды по городам России и ближнего зарубежья на январь 2020 года.
Карты: Прогноз на январь и февраль 2020 года, Сравнение прогнозируемой аномалии приземной температуры воздуха на январь 2020 года по разным моделям.




Погода в Нерюнгри - сегодня

Время (UTC), дата Ветер
(°,м/с) 
Видим.   Явления Облачность Т
(°С)
Тd
(°С)
f(%) Тe
(°С)
Pmin
(гПа)
dP
(гПа)
Po
(мм)
O2
(г/м3)
Тmin Tmax R s Состояние
почвы
03 23.11.20 300 (СЗ) 6-11{12}  2000 м  ливневой снег  10/8 540 м кучево-дожд., средняя 
[Cb cap|Ac und]
-8.4 -10.7 83 -13  1007.8  0.1  677  282           
06 23.11.20 300 (СЗ) 4{11}  2000 м  ливневой снег  10/10 450 м кучево-дожд. 
[Cb cap]
-7.8 -10 84 -11  1007.8  0.2  678  282           
09 23.11.20 300 (СЗ) 5-10{13}  2000 м  ливневой снег  10/10 480 м кучево-дожд. 
[Cb cap]
-8.4 -10.3 86 -13  1009.3  1.1  678  283           
12 23.11.20 310 (СЗ) 5-10{10}  2000 м    10/10 400 м кучево-дожд. 
[Cb cap]
-8.8 -10.8 85 -13  1010.7  1.1  679  284    -7.6     
15 23.11.20 310 (СЗ) 5-10{14}  20000 м  слаб. ливневой снег  10/5 600 м кучево-дожд., средняя, верхняя 
[Cb cap|Ac trans|Cs]
-10.3 -13.1 80 -15  1012.9  1.4  680  286           
18 23.11.20 320 (СЗ) 5-10{11}  50000 м  позёмок{ливн. осадки}  10/4 600 м кучево-дожд., средняя, верхняя 
[Cb cap|Ac trans|Ci]
-12.7 -15.4 80 -18  1016.4  2.2  682  289           
21 23.11.20 320 (СЗ) 7{10}  50000 м  позёмок  6/0 средняя, верхняя 
[Ac trans|Ci fib]
-14.3 -17 80 -21  1019.1  1.8  683  292           
00 24.11.20 320 (СЗ) 20000 м    8/3 600 м верхняя 
[Sc|Ci fib]
-15.7 -17.6 85 -19  1020.6  0.8  684  294  -16    0.7  36  равномерный
сухой снег
100% 
15 24.11.20 310 (СЗ) 20000 м    10/5 600 м кучево-дожд., верхняя 
[Cb cap|Ci]
-17.1 -19.7 80 -21  1027.7  688  297           
18 24.11.20 300 (СЗ) 20000 м  слаб. ливневой снег  10/6 720 м кучево-дожд., средняя, верхняя 
[Cb cap|Ac trans|Ci]
-15.4 -18.1 80 -21  1027.9  0.8  689  295           
21 24.11.20 300 (СЗ) 20000 м  в посл. час ливневой снег  8/4 600 м кучево-дожд., средняя, верхняя 
[Cb cap|Ac trans|Ci fib]
-16.4 -19 80 -21  1027.7  -0.6  688  296           
00 25.11.20 320 (СЗ) 5-10{11}  20000 м  слаб. ливневой снег  10/4 600 м кучево-дожд., средняя, верхняя 
[Cb cap|Ac trans|Cs]
-16.3 -18.9 80 -22  1027.7  0.2  688  296  -17.2    0.3  35  равномерный
сухой снег
100% 
03 25.11.20 320 (СЗ) 5-10{11}  20000 м  слаб. ливневой снег  10/3 600 м кучево-дожд., средняя, верхняя 
[Cb cap|Ac trans|Cs]
-15.7 -19.9 70 -21  1027.7  0.2  689  296           
06 25.11.20 320 (СЗ) 5-10{10}  20000 м  слаб. ливневой снег  10/6 570 м кучево-дожд., средняя, верхняя 
[Cb cap|Ac trans|Ci]
-14.6 -18.1 75 -20  1026.7  -0.5  688  294           
12 25.11.20 310 (СЗ) 5-10{10}  20000 м  слаб. ливневой снег  10/8 600 м кучево-дожд., средняя 
[Cb cap|Ac und]
-16.2 -20 72 -22  1028.3  0.1  689  296    -14.5  0.4     
15 25.11.20 310 (СЗ) 6-12{13}  20000 м  слаб. ливневой снег  10/6 630 м кучево-дожд., средняя 
[Cb cap|Ac und]
-16.7 -20.1 75 -23  1028.3  689  297           
18 25.11.20 300 (СЗ) 6-12{13}  20000 м  слаб. ливневой снег  10/6 570 м кучево-дожд., средняя 
[Cb cap|Ac und]
-16.1 -19.5 75 -23  1028.4  0.2  689  296           
21 25.11.20 300 (СЗ) 7-13{14}  20000 м  слаб. ливневой снег  10/8 600 м кучево-дожд., средняя 
[Cb cap|Ac und]
-16.4 -19.8 75 -24  1029.6  0.9  690  297           
00 26.11.20 310 (СЗ) 7-12{13}  20000 м  слаб. ливневой снег  10/8 700 м кучево-дожд., средняя 
[Cb cap|Ac und]
-16.2 -19.6 75 -23  1031.1  1.5  691  297  -16.7    0.5  35  равномерный
сухой снег
100% 
03 26.11.20 310 (СЗ) 6-10{11}  20000 м  слаб. ливневой снег  10/8 600 м кучево-дожд., средняя 
[Cb cap|Ac und]
-15.5 -18.9 75 -22  1032.7  1.6  692  297           
06 26.11.20 310 (СЗ) 6-10{11}  20000 м  слаб. ливневой снег  10/6 600 м кучево-дожд., средняя 
[Cb cap|Ac und]
-15.2 -18.6 75 -22  1033.3  0.8  692  297           
09 26.11.20 310 (СЗ) 5-10{11}  20000 м  слаб. ливневой снег  10/6 600 м кучево-дожд., средняя 
[Cb cap|Ac und]
-15 -17.7 80 -21  1034.5  0.9  693  297           
12 26.11.20 330 (СЗ) 6-11{13}  20000 м  слаб. ливневой снег  10/6 800 м кучево-дожд., средняя, верхняя 
[Cb cap|Ac trans|Ci]
-14.5 -17.2 80 -21  1034.8  0.4  694  296    -14.4  0.7     
15 26.11.20 330 (СЗ) 5-10{12}  20000 м  позёмок{ливн. осадки}  10/5 600 м кучево-дожд., средняя, верхняя 
[Cb cap|Ac trans|Ci]
-14.6 -17.3 80 -20  1033.9  -0.7  693  296           
18 26.11.20 330 (СЗ) 5-10{11}  20000 м  слаб. ливневой снег  10/6 750 м кучево-дожд., средняя, верхняя 
[Cb cap|Ac trans|Ci]
-14.5 -17.2 80 -20  1034.6  0.5  693  296           
Время (UTC), дата Ветер
(°,м/с) 
Видим.   Явления Облачность Т
(°С)
Тd
(°С)
f(%) Тe
(°С)
Pmin
(гПа)
dP
(гПа)
Po
(мм)
O2
(г/м3)
Тmin Tmax R s Состояние
почвы

Для получения пояснительной информации подведите курсор к названию столбца.

ПОГОДА в Нерюнгри - архив

Всё, что Вы хотите узнать о погоде в Нерюнгри - удобно и подробно!

Выберите нужную дату (начиная с 1 января 2019* года) и нажмите кнопку "Найти".
Будут отображены архивные сводки погоды по пункту Нерюнгри, начиная с указанной даты.


Отображать данные в формате CSV (для использования в таблицах Excel)


Внимание! Наш архив погоды предназначен исключительно для личного некоммерческого использования в познавательных целях. Если Вам необходимы официальные справки о состоянии погоды (для производственных, юридических, коммерческих и т.п. целей), обращайтесь в органы Росгидромета.

*Примечание: данная дата относится к архиву по метеостанциям СССР (Россия, СНГ, Балтия).
Архив по метеостанциям Зарубежной Европы и Азии (кроме Китая) хранится 10 дней, по другим регионам земного шара (Китай, Африка, Америка, Австралия, Океания) - 1 день.

Нерюнгри - район местоположения метеостанции


Название, широта, долгота, высота метеостанции:
Нерюнгри (Чульман) 56.8°ш. 124.9°д. 858 м над ур. моря [Российская Федерация]

Дополнительная информация

В oтличие oт бoльшинства пoгoдных сайтoв мы публикуем пoдрoбную метеoинфoрмацию в детальнoм прoфессиoнальнoм фoрмате.

Характеристики температуры и влажнoсти вoздуха измеряются на высoте 2 м в тени вдали oт зданий и деревьев.
Скoрoсть ветра измеряется на высoте 10 м (на урoвне рoста челoвека скoрoсть ветра ниже в 1.5-2 раза). Если метеoстанция нахoдится в гoрoде или в лесу, тo скoрoсть ветра занижена на 2-4 м/с пo сравнению с oткрытым местoм. Скoрoсть ветра над акватoриями крупных рек и oзёр, а также на вершинах хoлмoв на 2-5 м/с выше, чем в oбычных услoвиях.
Атмoсфернoе давление в разных тoчках местнoсти мoжет значительнo oтличаться oт давления на метеoстанции, в зависимoсти oт услoвий рельефа (при пoдъёме на 10 м давление пoнижается примернo на 1 мм рт.ст.).